| time (UTC) | temp F | wind direction | speed MPH | gust MPH | rain 1hr in | rain 24hr in | rain mn in | humidity % | barometer mb |
| 20260504080511 | 44 | 317 | 0.0 | 0.0 | 0.00 | 0.00 | 0.00 | 86 | 1015.8 |
| 20260504050459 | 42 | 317 | 0.0 | 0.0 | 0.00 | 0.00 | 0.00 | 83 | 1016.1 |
| 20260504044959 | 42 | 317 | 0.0 | 0.0 | 0.00 | 0.00 | 0.00 | 83 | 1016.0 |
| 20260504043457 | 42 | 317 | 0.0 | 0.0 | 0.00 | 0.00 | 0.00 | 83 | 1015.9 |
| 20260504041954 | 42 | 317 | 0.0 | 0.0 | 0.00 | 0.00 | 0.00 | 83 | 1016.0 |
| 20260504040450 | 41 | 317 | 0.0 | 0.0 | 0.00 | 0.00 | 0.00 | 83 | 1015.7 |
| 20260504035019 | 40 | 317 | 0.0 | 0.0 | 0.00 | 0.00 | 0.00 | 83 | 1015.8 |
| 20260504033519 | 40 | 317 | 0.0 | 0.0 | 0.00 | 0.00 | 0.00 | 82 | 1015.9 |
| 20260504031950 | 40 | 317 | 0.0 | 0.0 | 0.00 | 0.00 | 0.00 | 81 | 1015.9 |
| 20260504030501 | 40 | 317 | 0.0 | 0.0 | 0.00 | 0.00 | 0.00 | 79 | 1015.9 |
| 20260504024955 | 41 | 317 | 0.0 | 0.0 | 0.00 | 0.00 | 0.00 | 78 | 1015.9 |
| 20260504023458 | 41 | 317 | 0.0 | 0.0 | 0.00 | 0.00 | 0.00 | 77 | 1015.9 |
| 20260504021936 | 42 | 317 | 0.0 | 0.0 | 0.00 | 0.00 | 0.00 | 76 | 1015.7 |
| 20260504020442 | 43 | 317 | 0.0 | 0.0 | 0.00 | 0.00 | 0.00 | 74 | 1015.7 |
| 20260504014938 | 43 | 317 | 0.0 | 0.0 | 0.00 | 0.00 | 0.00 | 73 | 1015.4 |
| 20260504013440 | 44 | 317 | 0.0 | 1.0 | 0.00 | 0.00 | 0.00 | 72 | 1015.4 |
| 20260504011940 | 45 | 317 | 0.0 | 1.0 | 0.00 | 0.00 | 0.00 | 70 | 1015.2 |
| 20260504010446 | 47 | 317 | 0.0 | 0.0 | 0.00 | 0.00 | 0.00 | 65 | 1015.0 |
| 20260504004944 | 48 | 317 | 0.0 | 0.0 | 0.00 | 0.00 | 0.00 | 60 | 1014.9 |
| 20260504001937 | 53 | 317 | 0.0 | 1.0 | 0.00 | 0.00 | 0.00 | 56 | 1014.7 |
| 20260504000441 | 56 | 317 | 0.0 | 0.0 | 0.00 | 0.00 | 0.00 | 46 | 1014.7 |
| 20260503234941 | 59 | 317 | 0.0 | 0.0 | 0.00 | 0.00 | 0.00 | 40 | 1014.7 |
| 20260503233441 | 62 | 317 | 0.0 | 1.0 | 0.00 | 0.00 | 0.00 | 34 | 1014.5 |
| 20260503232018 | 62 | 277 | 2.0 | 4.0 | 0.00 | 0.00 | 0.00 | 27 | 1014.5 |
| 20260503230459 | 63 | 306 | 2.0 | 4.0 | 0.00 | 0.00 | 0.00 | 27 | 1014.5 |
| 20260503224959 | 64 | 223 | 3.0 | 7.0 | 0.00 | 0.00 | 0.00 | 26 | 1014.3 |
| 20260503223444 | 64 | 257 | 3.0 | 8.0 | 0.00 | 0.00 | 0.00 | 27 | 1014.4 |
| 20260503221953 | 65 | 37 | 3.0 | 7.0 | 0.00 | 0.00 | 0.00 | 25 | 1014.5 |
| 20260503220441 | 65 | 314 | 3.0 | 9.0 | 0.00 | 0.00 | 0.00 | 26 | 1014.5 |
| 20260503214959 | 64 | 224 | 3.0 | 8.0 | 0.00 | 0.00 | 0.00 | 27 | 1014.6 |
| 20260503213440 | 64 | 231 | 5.0 | 8.0 | 0.00 | 0.00 | 0.00 | 27 | 1014.5 |
| 20260503211952 | 65 | 355 | 5.0 | 10.0 | 0.00 | 0.00 | 0.00 | 26 | 1014.8 |
| 20260503210438 | 64 | 317 | 6.0 | 11.0 | 0.00 | 0.00 | 0.00 | 26 | 1014.7 |
| 20260503205017 | 64 | 225 | 3.0 | 13.0 | 0.00 | 0.00 | 0.00 | 27 | 1014.8 |
| 20260503203439 | 64 | 214 | 4.0 | 9.0 | 0.00 | 0.00 | 0.00 | 28 | 1014.8 |
| 20260503201938 | 64 | 348 | 4.0 | 10.0 | 0.00 | 0.00 | 0.00 | 30 | 1015.1 |
| 20260503200442 | 64 | 360 | 5.0 | 12.0 | 0.00 | 0.00 | 0.00 | 28 | 1015.2 |
| 20260503194939 | 64 | 252 | 4.0 | 9.0 | 0.00 | 0.00 | 0.00 | 29 | 1015.6 |
| 20260503193446 | 63 | 302 | 4.0 | 8.0 | 0.00 | 0.00 | 0.00 | 29 | 1015.8 |
| 20260503191936 | 62 | 234 | 3.0 | 7.0 | 0.00 | 0.00 | 0.00 | 30 | 1016.0 |
| 20260503190440 | 62 | 5 | 3.0 | 10.0 | 0.00 | 0.00 | 0.00 | 32 | 1016.3 |
| 20260503184936 | 61 | 191 | 2.0 | 9.0 | 0.00 | 0.00 | 0.00 | 32 | 1016.4 |
| 20260503183445 | 61 | 336 | 3.0 | 13.0 | 0.00 | 0.00 | 0.00 | 32 | 1016.6 |
| 20260503181942 | 60 | 294 | 5.0 | 11.0 | 0.00 | 0.00 | 0.00 | 32 | 1016.7 |
| 20260503180443 | 60 | 315 | 5.0 | 9.0 | 0.00 | 0.00 | 0.00 | 33 | 1016.8 |
| 20260503174942 | 59 | 285 | 3.0 | 7.0 | 0.00 | 0.00 | 0.00 | 32 | 1016.9 |
| 20260503173443 | 60 | 336 | 4.0 | 12.0 | 0.00 | 0.00 | 0.00 | 34 | 1017.0 |
| 20260503171936 | 60 | 32 | 4.0 | 11.0 | 0.00 | 0.00 | 0.00 | 32 | 1017.2 |
| 20260503170442 | 58 | 305 | 4.0 | 11.0 | 0.00 | 0.00 | 0.00 | 33 | 1017.4 |
| 20260503150443 | 54 | 355 | 5.0 | 11.0 | 0.00 | 0.00 | 0.00 | 40 | 1018.3 |
| 20260503130438 | 50 | 276 | 3.0 | 9.0 | 0.00 | 0.00 | 0.00 | 51 | 1018.6 |
| 20260503110459 | 36 | 340 | 0.0 | 0.0 | 0.00 | 0.00 | 0.00 | 85 | 1017.6 |
| 20260503090442 | 38 | 347 | 0.0 | 0.0 | 0.00 | 0.00 | 0.00 | 76 | 1016.1 |